Overview Statistics Trail Chart Weather Telemetry Raw packets
 

This is the latest recevied weather packets stored in our database for station/object GW4003. If no packets are shown the sender has not sent any weather packets the latest 10 day(s).

<< 93 94 95 96 97 98 99 >>
Time Temp. Humidity Pressure Rain* Wind** Luminosity Snow
1787938881 32.78° C 23% 1021.8 hPa 0 mm - - -
1787938578 32.78° C 25% 1022 hPa 0 mm - - -
1787938274 32.22° C 21% 1022 hPa 0 mm - - -
1787937969 32.22° C 25% 1022.1 hPa 0 mm - - -
1787937665 31.67° C 24% 1022.1 hPa 0 mm - - -
1787937361 31.11° C 25% 1022.2 hPa 0 mm - - -
1787937056 31.11° C 25% 1022.3 hPa 0 mm - - -
1787936752 30.56° C 26% 1022.4 hPa 0 mm - - -
1787936447 31.11° C 24% 1022.5 hPa 0 mm - - -
1787936142 30.56° C 27% 1022.5 hPa 0 mm - - -
1787935839 30.56° C 27% 1022.5 hPa 0 mm - - -
1787935534 30.56° C 28% 1022.5 hPa 0 mm - - -
1787935230 30° C 27% 1022.6 hPa 0 mm - - -
1787934926 29.44° C 29% 1022.7 hPa 0 mm - - -
1787934622 28.89° C 31% 1022.7 hPa 0 mm - - -
1787934318 28.89° C 31% 1022.7 hPa 0 mm - - -
1787934013 28.89° C 32% 1022.7 hPa 0 mm - - -
1787933709 28.33° C 31% 1022.6 hPa 0 mm - - -
1787933405 28.33° C 30% 1022.6 hPa 0 mm - - -
1787933101 28.33° C 31% 1022.7 hPa 0 mm - - -
1787932797 28.33° C 32% 1022.7 hPa 0 mm - - -
1787932492 27.78° C 32% 1022.8 hPa 0 mm - - -
1787932188 27.78° C 34% 1022.7 hPa 0 mm - - -
1787931884 27.22° C 35% 1022.6 hPa 0 mm - - -
1787931579 26.67° C 35% 1022.5 hPa 0 mm - - -

* Rain latest hour (hover to see other rain measurements)
** Current wind speed in m/s (hover to see current wind gust speed)